[[{"header":{"parameterUnit":"m.s-1","parameterCategory":1,"la1":30.2991,"la2":30.254,"lo1":-89.0895,"lo2":-89.0444,"dy":0.0017,"dx":0.0017,"nx":28,"ny":28,"refTime":"2023-10-13T03:00:00:Z","depth":0,"parameterNumber":2,"parameterNumberName":"U-component_of_WINDS"},"data":[0,0,0,0,0,0,0,0,0,0,0,0,0,0,0,0,0,0,0,0,0,0,0,0,0,0,0,0,0,0,0,0,0,0,0,0,0,0,0,0,0,0,0,0,0,0,0,0,0,0,0,0,0,0,0,0,0,0,-2.4151,-2.4151,0,-2.4148,-2.4148,-2.4148,-2.4106,-2.4105,-2.4104,-2.4103,-2.41,-2.41,-2.4101,0,0,0,0,0,0,0,0,0,0,0,0,0,-2.4122,-2.4122,-2.4151,-2.4151,-2.4151,-2.4148,-2.4148,-2.4148,-2.4107,-2.4105,-2.4104,-2.4103,-2.4099,-2.41,-2.4101,0,0,0,0,0,0,0,0,0,0,0,0,0,-2.4128,-2.4123,-2.4151,-2.413,-2.4128,-2.4148,-2.4148,-2.4148,-2.4107,-2.4105,-2.4104,-2.4102,-2.4099,-2.41,-2.4101,-2.4141,0,0,-2.4105,-2.4106,0,0,0,0,0,0,0,0,-2.4128,-2.4129,-2.4133,-2.4132,-2.4129,-2.4126,-2.4136,-2.4145,-2.4107,-2.4115,-2.4103,-2.4101,-2.411,-2.411,-2.4113,-2.4141,-2.4141,-2.4106,-2.4106,-2.4107,-2.4107,0,0,0,0,0,0,0,-2.4127,-2.4129,-2.415,-2.4133,-2.4131,-2.4121,-2.412,-2.4138,-2.4121,-2.4114,-2.4111,-2.4111,-2.4108,-2.4112,-2.4112,-2.414,-2.4106,-2.4107,-2.4107,-2.4108,-2.4201,-2.4203,0,0,0,0,0,0,-2.413,-2.4129,-2.415,-2.415,-2.4125,-2.4123,-2.4122,-2.4129,-2.4121,-2.4118,-2.4113,-2.4109,-2.411,-2.4111,-2.4112,-2.4158,-2.4107,-2.4108,-2.4109,-2.42,-2.4202,-2.4204,0,0,0,0,0,0,-2.4129,-2.4132,-2.415,-2.4139,-2.414,-2.4125,-2.4133,-2.4129,-2.4133,-2.412,-2.4116,-2.4119,-2.4109,-2.411,-2.4134,-2.4157,-2.4109,-2.411,-2.4198,-2.42,-2.4203,-2.425,0,0,0,0,0,0,-2.4129,-2.4132,-2.4147,-2.4139,-2.4141,-2.4172,-2.4134,-2.413,-2.4135,-2.4131,-2.4125,-2.4122,-2.4108,-2.4132,-2.4136,-2.4158,-2.4111,-2.4196,-2.4199,-2.4202,-2.4246,-2.4254,-2.426,0,0,0,0,0,-2.4128,-2.416,-2.4148,-2.4151,-2.4159,-2.4174,-2.4175,-2.4157,-2.4137,-2.4152,-2.4144,-2.4123,-2.4154,-2.4135,-2.4138,-2.4162,-2.4194,-2.4198,-2.4202,-2.4243,-2.4252,-2.426,0,0,0,0,0,0,-2.417,-2.4158,-2.4145,-2.4175,-2.4176,-2.4167,-2.4184,-2.4167,-2.4173,-2.4169,-2.4147,-2.4146,-2.4174,-2.417,-2.4149,-2.42,-2.4171,-2.4175,-2.4201,-2.421,-2.4216,-2.4216,-2.4112,0,0,0,0,0,-2.4183,-2.4196,-2.4185,-2.4213,-2.4214,-2.42,-2.4205,-2.4192,-2.4192,-2.4192,-2.4185,-2.4185,-2.4195,-2.4202,-2.4211,-2.4246,-2.4244,-2.4263,-2.427,-2.4276,-2.428,-2.4299,-2.4307,-2.4216,-2.4216,-2.4216,0,0,-2.421,-2.4205,-2.4215,-2.4222,-2.4221,-2.4235,-2.42,-2.4216,-2.4226,-2.4194,-2.4216,-2.4212,-2.4211,-2.424,-2.4253,-2.4238,-2.4305,-2.4281,-2.4286,-2.4286,-2.4303,-2.4312,-2.432,-2.4219,-2.4218,-2.4218,0,0,-2.4265,-2.4263,-2.4287,-2.4287,-2.4286,-2.4276,-2.4282,-2.4275,-2.4271,-2.4293,-2.4269,-2.4281,-2.4299,-2.4299,-2.4302,-2.436,-2.434,-2.4363,-2.4399,-2.4417,-2.4425,-2.4431,-2.4451,-2.4459,-2.4367,-2.4367,-2.4367,0,-2.4299,-2.4319,-2.4301,-2.4319,-2.4323,-2.4295,-2.4319,-2.4319,-2.4321,-2.4325,-2.4308,-2.433,-2.4327,-2.4357,-2.4371,-2.4374,-2.438,-2.4363,-2.4425,-2.4431,-2.4437,-2.4456,-2.4464,-2.437,-2.437,-2.437,-2.4369,0,-2.436,-2.4375,-2.4394,-2.4397,-2.4403,-2.4424,-2.4409,-2.4418,-2.4404,-2.4396,-2.442,-2.4416,-2.4423,-2.4429,-2.4416,-2.4458,-2.4448,-2.4429,-2.4399,-2.4448,-2.4466,-2.4473,-2.4374,-2.4373,-2.4372,-2.4372,0,0,-2.444,-2.4435,-2.4442,-2.4443,-2.4441,-2.4451,-2.4472,-2.4479,-2.4487,-2.449,-2.4506,-2.4522,-2.4504,-2.4507,-2.4494,-2.4511,-2.4557,-2.4489,-2.4489,-2.4501,-2.4602,-2.4616,-2.4625,-2.4544,-2.4546,-2.4547,-2.4602,0,-2.4494,-2.4528,-2.4513,-2.4548,-2.4561,-2.4536,-2.4553,-2.4554,-2.4548,-2.4558,-2.4551,-2.4563,-2.4538,-2.454,-2.4555,-2.4548,-2.4576,-2.4544,-2.4559,-2.456,-2.4559,-2.4634,-2.4649,-2.4701,-2.4609,-2.461,-2.4611,0,-2.4561,-2.4567,-2.4604,-2.46,-2.4605,-2.4621,-2.4627,-2.4637,-2.4638,-2.4632,-2.4636,-2.462,-2.4639,-2.461,-2.4637,-2.4615,-2.462,-2.4618,-2.462,-2.462,-2.4587,-2.4636,-2.4717,-2.4725,-2.4621,-2.462,-2.462,0,-2.4616,-2.4633,-2.4657,-2.466,-2.4655,-2.4667,-2.4666,-2.4665,-2.4671,-2.4677,-2.468,-2.4688,-2.4692,-2.4699,-2.4685,-2.4665,-2.4714,-2.4684,-2.4709,-2.4709,-2.4719,-2.4719,-2.4802,-2.4724,-2.4724,-2.4724,-2.4724,0,-2.4677,-2.47,-2.4682,-2.4697,-2.4723,-2.4706,-2.4732,-2.4728,-2.4727,-2.4741,-2.472,-2.4733,-2.4714,-2.4726,-2.4716,-2.4739,-2.4741,-2.4737,-2.4734,-2.4738,-2.4739,-2.4741,-2.4737,-2.4726,-2.4726,-2.4725,-2.4725,0,-2.4742,-2.4731,-2.4756,-2.475,-2.475,-2.4769,-2.4764,-2.4778,-2.4771,-2.4788,-2.4791,-2.478,-2.4793,-2.478,-2.4792,-2.4785,-2.4816,-2.4808,-2.4816,-2.4814,-2.484,-2.4837,-2.4927,-2.4937,-2.4853,-2.4854,-2.4855,0,-2.4781,-2.4798,-2.4795,-2.4803,-2.4804,-2.4817,-2.4823,-2.4807,-2.4815,-2.4817,-2.4831,-2.4842,-2.485,-2.4871,-2.4864,-2.4873,-2.4864,-2.4895,-2.4865,-2.487,-2.4864,-2.4863,-2.4865,-2.4901,-2.4902,-2.4903,-2.4903,0,-2.4851,-2.4845,-2.4855,-2.4864,-2.4872,-2.4878,-2.4882,-2.489,-2.4874,-2.4884,-2.4897,-2.4903,-2.4916,-2.4927,-2.4934,-2.4932,-2.4915,-2.4913,-2.4919,-2.4924,-2.4927,-2.4925,-2.4832,-2.4911,-2.491,-2.4909,-2.4909,-2.4909,-2.4904,-2.4919,-2.4919,-2.4931,-2.4933,-2.4938,-2.4951,-2.4946,-2.4956,-2.4966,-2.4956,-2.4972,-2.4973,-2.498,-2.4981,-2.4994,-2.498,-2.499,-2.4992,-2.4994,-2.4998,-2.4927,-2.4995,-2.4995,-2.4994,-2.4994,-2.4994,0,-2.4973,-2.4973,-2.4984,-2.4991,-2.5001,-2.4985,-2.4989,-2.4998,-2.5013,-2.5015,-2.5024,-2.5039,-2.505,-2.5044,-2.5054,-2.5065,-2.5057,-2.5068,-2.5066,-2.5066,-2.5009,-2.5003,-2.5074,-2.5074,-2.5074,-2.5074,-2.5074,-2.5074,-2.501,-2.5034,-2.5029,-2.5054,-2.5053,-2.5069,-2.5073,-2.5077,-2.5079,-2.5097,-2.5107,-2.5103,-2.5102,-2.5112,-2.5121,-2.5119,-2.5123,-2.5137,-2.5132,-2.5078,-2.507,-2.5063,-2.5057,-2.5138,-2.5138,-2.5188,-2.5189,-2.5189]},{"header":{"parameterUnit":"m.s-1","parameterCategory":1,"la1":30.2991,"la2":30.254,"lo1":-89.0895,"lo2":-89.0444,"dy":0.0017,"dx":0.0017,"nx":28,"ny":28,"refTime":"2023-10-13T03:00:00:Z","depth":0,"parameterNumber":3,"parameterNumberName":"V-component_of_WINDS"},"data":[0,0,0,0,0,0,0,0,0,0,0,0,0,0,0,0,0,0,0,0,0,0,0,0,0,0,0,0,0,0,0,0,0,0,0,0,0,0,0,0,0,0,0,0,0,0,0,0,0,0,0,0,0,0,0,0,0,0,-4.2365,-4.2366,0,-4.2473,-4.2474,-4.2476,-4.2496,-4.2496,-4.2495,-4.2494,-4.2599,-4.2602,-4.2606,0,0,0,0,0,0,0,0,0,0,0,0,0,-4.2171,-4.2174,-4.2365,-4.2366,-4.2367,-4.2473,-4.2474,-4.2476,-4.2497,-4.2496,-4.2495,-4.2494,-4.2598,-4.2602,-4.2606,0,0,0,0,0,0,0,0,0,0,0,0,0,-4.2264,-4.2175,-4.2364,-4.2391,-4.2394,-4.2473,-4.2474,-4.2476,-4.2497,-4.2496,-4.2494,-4.2493,-4.2596,-4.2602,-4.2607,-4.2665,0,0,-4.2623,-4.2626,0,0,0,0,0,0,0,0,-4.2259,-4.2272,-4.2385,-4.2389,-4.2393,-4.247,-4.2445,-4.2539,-4.2497,-4.2458,-4.2494,-4.2492,-4.2557,-4.2565,-4.2588,-4.267,-4.2675,-4.2624,-4.2627,-4.2629,-4.2631,0,0,0,0,0,0,0,-4.2253,-4.2267,-4.2407,-4.2387,-4.2392,-4.2395,-4.2407,-4.2463,-4.2513,-4.2461,-4.2463,-4.2476,-4.2558,-4.2583,-4.2591,-4.2676,-4.2624,-4.2628,-4.2632,-4.2634,-4.2813,-4.2815,0,0,0,0,0,0,-4.2242,-4.2261,-4.2404,-4.2411,-4.2322,-4.24,-4.2413,-4.2446,-4.2512,-4.2521,-4.2477,-4.2476,-4.2574,-4.2584,-4.2594,-4.2669,-4.2629,-4.2634,-4.2637,-4.2812,-4.2814,-4.2815,0,0,0,0,0,0,-4.2238,-4.2255,-4.2399,-4.2337,-4.2355,-4.2405,-4.2442,-4.2449,-4.2474,-4.2524,-4.2533,-4.2493,-4.2574,-4.2587,-4.2648,-4.2673,-4.2637,-4.2642,-4.281,-4.2812,-4.2814,-4.2816,0,0,0,0,0,0,-4.2232,-4.2253,-4.2277,-4.2337,-4.2359,-4.2453,-4.2443,-4.2452,-4.2484,-4.2484,-4.2542,-4.255,-4.2574,-4.264,-4.2654,-4.2679,-4.2646,-4.2808,-4.2811,-4.2814,-4.2814,-4.2819,-4.2822,0,0,0,0,0,-4.2225,-4.2271,-4.2278,-4.2295,-4.239,-4.2454,-4.2466,-4.2495,-4.2486,-4.2509,-4.2542,-4.2548,-4.2668,-4.2646,-4.2662,-4.2689,-4.2807,-4.281,-4.2814,-4.2813,-4.2818,-4.2822,0,0,0,0,0,0,-4.2209,-4.2279,-4.2288,-4.2355,-4.2399,-4.2458,-4.2488,-4.2499,-4.2545,-4.2543,-4.2575,-4.2588,-4.2648,-4.2674,-4.2649,-4.275,-4.2736,-4.2743,-4.273,-4.2736,-4.2739,-4.2732,-4.265,0,0,0,0,0,-4.2214,-4.2263,-4.232,-4.2374,-4.2396,-4.2438,-4.2467,-4.2486,-4.2532,-4.255,-4.2587,-4.263,-4.2678,-4.2708,-4.2754,-4.2818,-4.2831,-4.2845,-4.2849,-4.2852,-4.2857,-4.2894,-4.2901,-4.2827,-4.2827,-4.2827,0,0,-4.2223,-4.2268,-4.2296,-4.2372,-4.2408,-4.2457,-4.2454,-4.2504,-4.254,-4.2557,-4.2619,-4.2647,-4.2697,-4.2761,-4.279,-4.2785,-4.2881,-4.2856,-4.2858,-4.2862,-4.2899,-4.2906,-4.2912,-4.2829,-4.2829,-4.2828,0,0,-4.2265,-4.2304,-4.2354,-4.2391,-4.2447,-4.2476,-4.2487,-4.2546,-4.2566,-4.2629,-4.2643,-4.2685,-4.2766,-4.2802,-4.2831,-4.2889,-4.2896,-4.2903,-4.2923,-4.2959,-4.2965,-4.297,-4.2992,-4.2999,-4.2908,-4.2908,-4.2908,0,-4.2269,-4.2345,-4.2377,-4.2429,-4.2462,-4.2482,-4.2532,-4.2566,-4.2633,-4.2655,-4.2649,-4.2753,-4.2787,-4.286,-4.2875,-4.2897,-4.2912,-4.2896,-4.2962,-4.2967,-4.2973,-4.2994,-4.3002,-4.2909,-4.2908,-4.2908,-4.2908,0,-4.2347,-4.2399,-4.2433,-4.2501,-4.2538,-4.2588,-4.2627,-4.266,-4.2676,-4.2705,-4.2768,-4.2811,-4.2868,-4.2886,-4.2901,-4.2962,-4.2957,-4.2955,-4.2942,-4.298,-4.3,-4.3009,-4.2909,-4.2909,-4.2909,-4.2909,0,0,-4.2381,-4.2469,-4.248,-4.2512,-4.2577,-4.2617,-4.2668,-4.2726,-4.2754,-4.28,-4.2844,-4.2913,-4.2913,-4.2946,-4.2965,-4.2996,-4.3041,-4.2991,-4.2993,-4.3,-4.3113,-4.3114,-4.3123,-4.3047,-4.3049,-4.305,-4.3109,0,-4.2432,-4.2527,-4.2558,-4.2637,-4.2686,-4.2706,-4.2751,-4.2795,-4.2824,-4.2868,-4.2899,-4.2948,-4.2944,-4.2964,-4.2996,-4.3029,-4.3065,-4.3025,-4.3087,-4.3089,-4.3075,-4.3133,-4.3134,-4.3188,-4.3117,-4.3118,-4.3119,0,-4.2503,-4.2554,-4.2638,-4.2699,-4.272,-4.276,-4.2817,-4.2859,-4.2909,-4.2928,-4.2966,-4.2983,-4.3037,-4.3021,-4.3095,-4.3068,-4.3095,-4.3115,-4.3118,-4.3125,-4.3107,-4.3142,-4.3205,-4.3213,-4.3132,-4.3131,-4.313,0,-4.2521,-4.261,-4.2672,-4.2699,-4.2771,-4.2799,-4.2829,-4.2879,-4.2912,-4.2961,-4.2983,-4.3036,-4.3065,-4.3105,-4.3136,-4.3121,-4.3208,-4.3194,-4.3225,-4.3224,-4.3242,-4.324,-4.3311,-4.3258,-4.3258,-4.3258,-4.3258,0,-4.2574,-4.2625,-4.2682,-4.272,-4.2778,-4.2813,-4.2869,-4.29,-4.2944,-4.2988,-4.3008,-4.3049,-4.3087,-4.3133,-4.3157,-4.3215,-4.3228,-4.3244,-4.325,-4.3243,-4.3241,-4.3261,-4.3258,-4.326,-4.326,-4.3259,-4.3259,0,-4.2604,-4.2644,-4.2713,-4.2777,-4.2794,-4.2834,-4.2888,-4.2925,-4.2955,-4.3011,-4.3026,-4.3073,-4.3128,-4.3163,-4.3231,-4.3248,-4.3312,-4.3316,-4.3296,-4.3299,-4.3328,-4.3325,-4.3414,-4.3428,-4.3365,-4.3366,-4.3367,0,-4.2636,-4.2676,-4.2745,-4.2777,-4.2809,-4.2861,-4.2896,-4.2932,-4.2968,-4.3029,-4.3059,-4.3116,-4.3164,-4.325,-4.3289,-4.3342,-4.3348,-4.3376,-4.3356,-4.3348,-4.335,-4.3347,-4.3352,-4.3379,-4.3379,-4.338,-4.338,0,-4.2688,-4.2707,-4.2758,-4.2817,-4.2859,-4.2906,-4.2953,-4.2978,-4.3022,-4.3061,-4.3119,-4.3156,-4.3228,-4.3284,-4.3341,-4.3371,-4.3383,-4.3386,-4.3396,-4.3389,-4.3377,-4.3385,-4.3306,-4.3384,-4.3383,-4.3383,-4.3383,-4.3383,-4.2721,-4.2758,-4.2814,-4.287,-4.291,-4.2954,-4.2994,-4.303,-4.308,-4.3143,-4.3161,-4.3222,-4.3272,-4.335,-4.3382,-4.3429,-4.3425,-4.3439,-4.3443,-4.3446,-4.3447,-4.3369,-4.3439,-4.3439,-4.3439,-4.3439,-4.3439,0,-4.2775,-4.2813,-4.2865,-4.2932,-4.2977,-4.2987,-4.304,-4.3076,-4.313,-4.3177,-4.3224,-4.3291,-4.3346,-4.339,-4.3447,-4.3476,-4.3483,-4.349,-4.3488,-4.3495,-4.3447,-4.3433,-4.3483,-4.3483,-4.3483,-4.3483,-4.3483,-4.3483,-4.2809,-4.2874,-4.2899,-4.2984,-4.302,-4.3082,-4.3112,-4.3152,-4.3191,-4.3265,-4.3312,-4.3342,-4.3388,-4.3448,-4.3499,-4.3511,-4.3531,-4.3537,-4.3549,-4.3503,-4.3498,-4.3493,-4.3481,-4.354,-4.3541,-4.3594,-4.3594,-4.3595]}]]